Location: Columbia
(38.9520°N, 92.3340°W)
Time: 21:50:21
(UTC-05:00)

Meteor 1-4 Rocket - Visible Passes

Search period start: 05 July 2015 00:00
Search period end: 15 July 2015 00:00
Orbit: 460 x 522 km, 81.2° (Epoch: 04 July)

Date Brightness Start Highest point End Pass type
(mag) Time Alt. Az. Time Alt. Az. Time Alt. Az.
05 Jul 3.9 02:36:35 10° NNW 02:38:58 36° NNW 02:38:58 36° NNW visible
06 Jul 4.0 02:13:54 10° N 02:16:17 38° N 02:16:17 38° N visible
07 Jul 4.3 01:51:19 10° N 01:53:36 33° NNE 01:53:36 33° NNE visible
08 Jul 4.7 01:28:50 10° N 01:30:56 26° NE 01:30:56 26° NE visible
08 Jul 5.4 03:05:25 10° WNW 03:05:25 10° WNW 03:05:25 10° WNW visible
09 Jul 5.0 01:06:29 10° NNE 01:08:17 19° NE 01:08:17 19° NE visible
09 Jul 5.1 02:41:56 10° NW 02:42:46 14° NW 02:42:46 14° NW visible
10 Jul 5.3 00:44:23 10° NNE 00:45:38 14° NE 00:45:38 14° NE visible
10 Jul 4.9 02:18:49 10° NNW 02:20:07 18° NW 02:20:07 18° NW visible
11 Jul 5.6 00:22:56 10° NE 00:23:00 10° NE 00:23:00 10° NE visible
11 Jul 4.8 01:55:52 10° NNW 01:57:29 23° NW 01:57:29 23° NW visible
12 Jul 4.7 01:33:04 10° NNW 01:34:52 27° NNW 01:34:52 27° NNW visible
13 Jul 4.7 01:10:21 10° N 01:12:14 28° N 01:12:14 28° N visible
14 Jul 4.7 00:47:44 10° N 00:49:38 26° NNE 00:49:38 26° NNE visible
